Location: Acton
(51.4942°N, 0.2232°W)
Time: 12:50:38
(UTC+00:00)

DMSP B5D2-2 - Pass Details

Date: 18 September 2020
Orbit: 790 x 806 km, 98.3° (Epoch: 24 October)

Event Time Altitude Azimuth Distance (km) Brightness Sun altitude
Rises 20:18:17 0° 13° (NNE) 3,334 7.5 -20.2°
Reaches altitude 10° 20:20:38 10° 12° (NNE) 2,400 6.8 -20.5°
Maximum altitude 20:25:56 74° 289° (WNW) 842 4.3 -21.2°
Drops below altitude 10° 20:31:11 10° 204° (SSW) 2,382 6.4 -21.9°
Sets 20:33:31 0° 203° (SSW) 3,307 7.2 -22.2°
